Regional Weather Roundup
Issued by NWS Cleveland, OH

Home | Current Version | Previous Version | Graphics & Text | Print | Product List | Glossary On
Versions: 1 2 3 4 5 6 7 8 9 10 11 12 13 14 15 16 17 18 19 20 21 22 23 24 25 26 27 28 29 30 31 32 33 34 35 36 37 38 39 40 41 42 43 44 45 46 47 48 49 50
000
ASUS41 KCLE 010300
RWRCLE
OHIO REGIONAL WEATHER ROUNDUP
NATIONAL WEATHER SERVICE WILMINGTON, OH
1100 PM EDT SUN AUG 31 2014

NOTE: "FAIR" INDICATES FEW OR NO CLOUDS BELOW 12,000 FEET WITH NO
SIGNIFICANT WEATHER AND/OR OBSTRUCTIONS TO VISIBILITY.

OHZ001>008-015>018-024>027-034-035-043-044-010400-
   NORTHWEST OHIO

CITY           SKY/WX    TMP DP  RH WIND       PRES   REMARKS
DEFIANCE       CLEAR     73  68  84 SW5       29.94F
FINDLAY        CLEAR     72  69  90 S8        29.96F
TOLEDO EXPRESS CLEAR     73  69  87 S3        29.94F
TOLEDO METCALF CLEAR     74  69  85 S7        29.95F
LIMA           PTCLDY    72  68  87 S7        29.98S
$$

OHZ009>014-019>023-028>033-038-089-010400-
   NORTHEAST OHIO

CITY           SKY/WX    TMP DP  RH WIND       PRES   REMARKS
CLE-HOPKINS    PTCLDY    73  69  87 S8        30.00S
CLE-LAKEFRONT  CLEAR     75  70  84 S8        29.96S
CUY CO. ARPT   CLEAR     77  73  88 S9        29.99S
LORAIN-ELYRIA  CLEAR     76  69  79 S8        29.99S
ASHTABULA      CLEAR     69  68  96 S3        30.01R
AKRON-CANTON   PTCLDY    73  69  87 SW7       30.02S
WOOSTER        NOT AVBL
MANSFIELD      CLEAR     71  70  96 S7        30.01F
YOUNGSTOWN     PTCLDY    70  69  97 S5        30.02S
$$

OHZ042-051>053-060>062-070>072-077>081-010400-
  SOUTHWEST OHIO

CITY           SKY/WX    TMP DP  RH WIND       PRES   REMARKS
CINC-COVINGTON CLEAR     72  68  87 S3        30.01S
CINC-LUNKEN    CLEAR     71  69  93 S3        30.01S
HAMILTON       CLEAR     71  69  93 CALM      30.01S
DAYTON         NOT AVBL
WRIGHT-PAT AFB MOCLDY    74  71  90 S8        30.00S
DAYTON GENERAL PTCLDY    72  70  93 S7        30.00F
WILMINGTON     CLEAR     69  67  93 S3        30.02S
$$

OHZ036-037-039>041-045>050-054>059-063>069-073>076-082>088-010400-
  CENTRAL AND SOUTHEAST OHIO

CITY           SKY/WX    TMP DP  RH WIND       PRES   REMARKS
COLUMBUS       PTCLDY    75  68  78 SE5       30.01S
OSU AIRPORT    MOCLDY    74  68  81 S7        30.01S
BOLTON FIELD   NOT AVBL
RICKENBACK AFB NOT AVBL
NEWARK         CLEAR     72  69  90 CALM      30.02S
MARION         PTCLDY    73  70  90 S7        30.00S
LANCASTER      PTCLDY    71  68  90 S3        30.02F
ZANESVILLE     CLEAR     71  68  90 S5        30.03S
NEW PHILLY     CLOUDY    72  70  93 S3        30.03S
$$


USA.gov is the U.S. government's official web portal to all federal, state and local government web resources and services.